Stations météo

réclame
Mon MeteoGroup
Aberdaron, Grande-Bretagne (3405): Température de l'air & dewpoint: 22.10.2020 02:00:00 - 28.10.2020 02:00:00 (GMT)Aberdaron, Grande-Bretagne (3405): Température de l'air -20cm & Température de l'air -100cm: 22.10.2020 02:00:00 - 28.10.2020 02:00:00 (GMT)Aberdaron, Grande-Bretagne (3405): Vitesse du vent & gusts: 22.10.2020 02:00:00 - 28.10.2020 02:00:00 (GMT)Aberdaron, Grande-Bretagne (3405): Direction du vent: 22.10.2020 02:00:00 - 28.10.2020 02:00:00 (GMT)Aberdaron, Grande-Bretagne (3405): reduced air pressure: 22.10.2020 02:00:00 - 28.10.2020 02:00:00 (GMT)Aberdaron, Grande-Bretagne (3405): visibility: 22.10.2020 02:00:00 - 28.10.2020 02:00:00 (GMT)Aberdaron, Grande-Bretagne (3405): Ensoleillement: 22.10.2020 02:00:00 - 28.10.2020 02:00:00 (GMT)Aberdaron, Grande-Bretagne (3405): Quantités de précipitations: 22.10.2020 02:00:00 - 28.10.2020 02:00:00 (GMT)
Date & Time tt [°C] td [°C] tt -20cm [°C] tt -100cm [°C] ff [km/h] ff [knt] fx [km/h] fx [knt] dd ppp [hPa] vv [km] sd [min] rr [mm]
28.10.2020 02:00:00 - - - - - - - - - - - - 0,2
28.10.2020 01:00:00 9,4 6,0 - - 50 27 74 40 SW 994,1 30 0 0,0
28.10.2020 00:00:00 10,4 6,7 - - 52 28 83 45 SW 994,0 27 - 0,0
27.10.2020 23:00:00 9,9 6,6 - - 48 26 89 48 SW 993,8 14 0 0,8
27.10.2020 22:00:00 11,0 6,4 - - 44 24 68 37 SW 994,1 17 0 0,0
27.10.2020 21:00:00 10,9 6,3 - - 55 30 70 38 WSW 994,0 18 0 0,0
27.10.2020 20:00:00 10,4 5,0 - - 44 24 63 34 SW 993,7 19 0 0,0
27.10.2020 19:00:00 10,5 5,9 - - 48 26 63 34 SW 993,4 23 0 0,0
27.10.2020 18:00:00 8,9 5,4 - - 35 19 76 41 W 993,3 28 0 0,2
27.10.2020 17:00:00 10,9 6,3 - - 52 28 63 34 WSW 992,4 22 6 0,0
27.10.2020 16:00:00 11,0 5,1 - - 48 26 67 36 WSW 992,0 30 42 0,0
27.10.2020 15:00:00 11,4 7,1 - - 46 25 68 37 WSW 991,5 20 54 0,0
27.10.2020 14:00:00 11,7 6,9 - - 54 29 67 36 WSW 990,8 26 36 0,0
27.10.2020 13:00:00 10,6 9,7 - - 44 24 72 39 W 990,5 22 0 0,4
27.10.2020 12:00:00 10,3 10,2 - - 48 26 76 41 W 989,5 2,5 0 2,8
27.10.2020 11:00:00 12,7 12,6 - - 57 31 70 38 SW 988,4 9 0 0,2
27.10.2020 10:00:00 11,8 11,6 - - 48 26 67 36 S 988,5 2,9 0 0,4
27.10.2020 09:00:00 10,8 10,5 11,2 12,4 44 24 65 35 S 989,9 2,7 0 0,4
27.10.2020 08:00:00 10,4 10,1 - - 44 24 59 32 S 991,1 5 0 0,0
27.10.2020 07:00:00 9,9 9,6 - - 39 21 57 31 S 992,5 3,4 0 0,4
27.10.2020 06:00:00 9,6 9,0 - - 42 23 54 29 S 993,8 4,5 0 0,4
27.10.2020 05:00:00 10,0 9,3 - - 37 20 54 29 S 994,9 11 0 0,8
27.10.2020 04:00:00 10,0 7,9 - - 37 20 48 26 SSW 996,0 12 0 0,2
27.10.2020 03:00:00 10,5 6,0 - - 31 17 46 25 SW 997,1 35 0 0,0
27.10.2020 02:00:00 10,4 5,5 - - 34 18 - - SW 998,3 30 0 0,0
27.10.2020 01:00:00 10,1 4,3 - - 31 17 - - WSW 999,0 40 0 0,0
27.10.2020 00:00:00 10,0 5,6 - - 29 16 - - WSW 999,6 35 - 0,0
26.10.2020 23:00:00 9,6 5,7 - - 34 18 - - W 1000,0 35 0 0,0
26.10.2020 22:00:00 9,7 6,3 - - 34 18 - - W 1000,3 50 0 0,0
26.10.2020 21:00:00 9,7 6,3 - - 34 18 50 27 W 1000,1 40 0 0,0
26.10.2020 20:00:00 9,9 6,0 - - 41 22 54 29 W 999,9 45 0 0,0
26.10.2020 19:00:00 10,5 6,6 - - 41 22 50 27 W 999,7 40 0 0,0
26.10.2020 18:00:00 9,8 7,5 - - 31 17 57 31 W 999,4 30 0 0,2
26.10.2020 17:00:00 10,8 6,6 - - 35 19 50 27 W 999,0 30 36 0,0
26.10.2020 16:00:00 11,3 7,0 - - 37 20 52 28 W 998,7 30 6 0,0
26.10.2020 15:00:00 12,3 7,0 - - 37 20 55 30 W 998,5 40 36 0,0
26.10.2020 14:00:00 12,4 6,9 - - 46 25 59 32 W 998,2 30 54 0,0
26.10.2020 13:00:00 12,0 7,6 - - 41 22 54 29 W 997,9 26 30 0,0
26.10.2020 12:00:00 12,1 7,8 - - 44 24 59 32 W 997,7 24 30 0,0
26.10.2020 11:00:00 11,5 8,0 - - 41 22 54 29 W 997,2 22 42 0,0
26.10.2020 10:00:00 11,0 7,4 - - 41 22 63 34 W 996,4 22 24 0,0
26.10.2020 09:00:00 10,5 6,9 11,4 12,5 46 25 63 34 W 995,6 25 24 0,0
26.10.2020 08:00:00 10,4 7,2 - - 48 26 67 36 W 994,2 26 6 0,0
26.10.2020 07:00:00 10,6 7,7 - - 52 28 65 35 W 992,9 30 0 0,0
26.10.2020 06:00:00 10,6 9,3 - - 44 24 61 33 WSW 991,9 17 0 0,0
26.10.2020 05:00:00 10,2 8,5 - - 46 25 68 37 W 991,4 20 0 0,0
26.10.2020 04:00:00 10,1 8,6 - - 54 29 68 37 WSW 990,7 19 0 0,4
26.10.2020 03:00:00 9,8 7,9 - - 52 28 67 36 WSW 991,0 6 0 0,0
26.10.2020 02:00:00 10,0 7,3 - - 48 26 63 34 WSW 991,2 21 0 0,0
26.10.2020 01:00:00 9,9 6,8 - - 48 26 61 33 WSW 991,3 26 0 0,0
26.10.2020 00:00:00 10,1 7,2 - - 44 24 59 32 WSW 991,5 25 - 0,0
25.10.2020 23:00:00 10,0 6,9 - - 46 25 55 30 WSW 991,7 30 0 0,0
25.10.2020 22:00:00 9,8 6,9 - - 44 24 55 30 WSW 991,7 30 0 0,0
25.10.2020 21:00:00 9,8 7,2 - - 42 23 57 31 WSW 991,5 27 0 2,0
25.10.2020 20:00:00 10,8 6,0 - - 44 24 61 33 SW 991,4 28 0 0,0
25.10.2020 19:00:00 10,7 6,5 - - 46 25 59 32 SW 991,5 27 0 0,0
25.10.2020 18:00:00 10,7 6,1 - - 48 26 59 32 SW 991,5 29 0 0,0
25.10.2020 17:00:00 10,5 6,7 - - 46 25 59 32 SW 991,2 30 24 0,0
25.10.2020 16:00:00 11,1 7,0 - - 42 23 54 29 SW 991,0 29 48 0,0
25.10.2020 15:00:00 11,0 7,3 - - 42 23 54 29 SW 990,8 24 12 0,0
25.10.2020 14:00:00 10,9 7,1 - - 39 21 55 30 SW 991,0 24 6 0,0
25.10.2020 13:00:00 11,7 5,0 - - 44 24 54 29 WSW 991,2 30 60 0,0
25.10.2020 12:00:00 12,0 7,0 - - 39 21 55 30 SW 991,2 25 36 0,0
25.10.2020 11:00:00 11,6 5,9 - - 44 24 54 29 SW 991,1 30 60 0,0
25.10.2020 10:00:00 11,2 5,9 - - 41 22 59 32 SW 991,0 29 30 0,0
25.10.2020 09:00:00 10,6 5,3 11,7 12,7 44 24 65 35 WSW 990,5 26 6 0,0
25.10.2020 08:00:00 10,7 5,9 - - 52 28 68 37 WSW 989,9 23 0 0,0
25.10.2020 07:00:00 9,9 5,7 - - 55 30 76 41 WSW 989,0 22 0 0,0
25.10.2020 06:00:00 10,8 6,0 - - 61 33 93 50 SW 988,6 17 0 0,0
25.10.2020 05:00:00 10,4 6,7 - - 59 32 76 41 SW 988,3 21 0 0,2
25.10.2020 04:00:00 9,5 6,2 - - 55 30 81 44 SW 988,4 5 0 1,0
25.10.2020 03:00:00 11,0 7,3 - - 63 34 78 42 SW 988,5 16 0 0,0
25.10.2020 02:00:00 11,0 6,9 - - 59 32 78 42 SW 989,1 18 0 0,0
25.10.2020 01:00:00 10,9 6,6 - - 61 33 83 45 SW 989,3 19 0 0,4
25.10.2020 00:00:00 - - - - - - - - - - - - -
24.10.2020 23:00:00 10,6 6,4 - - 44 24 63 34 SW 990,2 23 0 0,0
24.10.2020 22:00:00 10,3 5,9 - - 44 24 67 36 SW 990,3 29 0 0,0
24.10.2020 21:00:00 10,4 5,9 - - 48 26 63 34 SW 990,2 29 0 0,0
24.10.2020 20:00:00 9,1 7,2 - - 54 29 80 43 SSW 990,5 28 0 2,6
24.10.2020 19:00:00 10,2 7,8 - - 42 23 57 31 SSW 990,8 30 0 0,0
24.10.2020 18:00:00 9,8 7,0 - - 37 20 - - SSW 990,7 35 0 0,0
24.10.2020 17:00:00 9,2 6,4 - - 26 14 52 28 SW 990,8 40 6 0,2
24.10.2020 16:00:00 8,4 6,8 - - 41 22 59 32 W 990,9 27 0 1,4
24.10.2020 15:00:00 10,0 8,8 - - 39 21 55 30 SW 991,5 4,3 0 1,8
24.10.2020 14:00:00 10,4 7,1 - - 39 21 50 27 SW 992,1 12 0 0,2
24.10.2020 13:00:00 11,2 10,1 - - 39 21 50 27 SSW 992,8 16 0 0,0
24.10.2020 12:00:00 10,9 9,0 - - 39 21 54 29 SSW 994,2 24 0 0,4
24.10.2020 11:00:00 11,2 9,9 - - 44 24 67 36 SSW 994,6 14 0 0,0
24.10.2020 10:00:00 11,4 11,0 - - 48 26 89 48 SW 994,4 11 0 2,6
24.10.2020 09:00:00 12,6 11,6 11,7 12,7 65 35 81 44 SW 994,1 6 0 0,2
24.10.2020 08:00:00 13,0 12,5 - - 67 36 87 47 SSW 994,0 7 0 0,2
24.10.2020 07:00:00 12,6 12,4 - - 67 36 94 51 SSW 994,1 7 0 1,4
24.10.2020 06:00:00 12,3 11,9 - - 72 39 91 49 SSW 994,8 3,8 0 0,2
24.10.2020 05:00:00 12,4 11,5 - - 74 40 98 53 S 996,1 9 0 0,4
24.10.2020 04:00:00 11,6 10,4 - - 70 38 93 50 S 997,7 - 0 0,0
24.10.2020 03:00:00 12,2 9,0 - - 63 34 85 46 S 998,8 - 0 0,0
24.10.2020 02:00:00 12,0 8,5 - - 65 35 83 45 SSW 1000,2 - 0 0,0
24.10.2020 01:00:00 11,8 7,6 - - 63 34 81 44 SSW 1001,2 - 0 0,0
24.10.2020 00:00:00 11,6 7,4 - - 57 31 78 42 SSW 1002,7 9 - 0,0
23.10.2020 23:00:00 10,8 7,7 - - 54 29 74 40 SSW 1004,2 10 0 0,0
23.10.2020 22:00:00 11,2 6,7 - - 48 26 59 32 SSW 1005,0 28 0 0,0
23.10.2020 21:00:00 10,9 5,3 - - 50 27 59 32 SW 1005,6 30 0 0,0
23.10.2020 20:00:00 10,9 6,5 - - 39 21 48 26 SW 1006,1 30 0 0,0
23.10.2020 19:00:00 10,6 5,0 - - 39 21 50 27 SW 1006,8 35 0 0,0
23.10.2020 18:00:00 10,4 5,7 - - 29 16 46 25 SW 1006,8 35 0 0,0
23.10.2020 17:00:00 10,3 5,7 - - 37 20 - - SW 1006,7 35 0 0,0
23.10.2020 16:00:00 10,7 5,5 - - 34 18 - - WSW 1006,9 45 18 0,0
23.10.2020 15:00:00 10,5 5,1 - - 34 18 - - WSW 1006,4 40 30 0,0
23.10.2020 14:00:00 10,8 5,6 - - 31 17 - - WSW 1006,7 35 54 0,0
23.10.2020 13:00:00 11,2 6,0 - - 31 17 - - W 1006,1 35 54 0,0
23.10.2020 12:00:00 11,1 7,2 - - 34 18 48 26 W 1005,7 40 42 0,0
23.10.2020 11:00:00 11,0 7,4 - - 35 19 48 26 W 1005,0 40 48 0,0
23.10.2020 10:00:00 10,8 8,5 - - 35 19 63 34 WNW 1003,8 55 36 0,2
23.10.2020 09:00:00 10,6 10,3 11,9 12,7 48 26 65 35 SSW 1002,9 - 0 0,8
23.10.2020 08:00:00 10,4 9,2 - - 46 25 57 31 SSW 1003,1 - 0 1,0
23.10.2020 07:00:00 10,4 8,6 - - 42 23 55 30 SSW 1003,4 11 0 0,4
23.10.2020 06:00:00 11,0 7,1 - - 44 24 54 29 SSW 1004,0 - 0 0,0
23.10.2020 05:00:00 10,5 6,8 - - 44 24 54 29 SSW 1004,5 - 0 0,0
23.10.2020 04:00:00 10,6 6,2 - - 46 25 61 33 SSW 1004,9 - 0 0,0
23.10.2020 03:00:00 10,5 5,5 - - 39 21 50 27 SSW 1005,4 - 0 0,0
23.10.2020 02:00:00 10,1 4,5 - - 39 21 50 27 SSW 1006,3 - 0 0,0
23.10.2020 01:00:00 10,0 4,5 - - 34 18 48 26 SSW 1006,9 - 0 0,0
23.10.2020 00:00:00 9,7 3,0 - - 34 18 46 25 SW 1007,6 - - 0,0
22.10.2020 23:00:00 9,8 3,0 - - 31 17 - - SW 1008,0 - 0 0,0
22.10.2020 22:00:00 9,6 2,8 - - 34 18 48 26 SW 1008,4 - 0 0,0
22.10.2020 21:00:00 9,3 3,1 - - 28 15 - - SSW 1008,8 - 0 0,0
22.10.2020 20:00:00 9,5 2,9 - - 24 13 - - SW 1009,1 - 0 0,0
22.10.2020 19:00:00 9,5 2,9 - - 22 12 - - SW 1009,2 - 0 0,0
22.10.2020 18:00:00 9,3 2,2 - - 22 12 - - WSW 1009,2 - 0 0,0
22.10.2020 17:00:00 9,5 3,4 - - 21 11 - - WSW 1008,9 - 0 0,0
22.10.2020 16:00:00 9,5 3,2 - - 21 11 - - WSW 1008,9 - 0 0,0
22.10.2020 15:00:00 9,8 3,6 - - 24 13 - - WSW 1008,6 - 0 0,0
22.10.2020 14:00:00 10,1 5,2 - - 24 13 - - WSW 1008,4 45 0 0,0
22.10.2020 13:00:00 10,1 5,6 - - 24 13 - - W 1008,4 45 0 0,0
22.10.2020 12:00:00 10,0 5,8 - - 24 13 - - W 1008,5 45 18 0,0
22.10.2020 11:00:00 10,9 6,9 - - 22 12 - - W 1008,1 35 12 0,0
22.10.2020 10:00:00 9,9 6,8 - - 24 13 - - W 1007,7 35 0 0,0
22.10.2020 09:00:00 9,6 6,7 12,4 12,7 26 14 - - W 1007,2 35 0 0,0
22.10.2020 08:00:00 9,5 6,8 - - 24 13 - - W 1006,4 35 0 0,0
22.10.2020 07:00:00 9,3 6,6 - - 28 15 - - W 1005,5 35 0 0,0
22.10.2020 06:00:00 9,1 6,7 - - 26 14 - - W 1005,0 35 0 0,0
22.10.2020 05:00:00 9,3 6,6 - - 28 15 - - W 1004,5 35 0 0,0
22.10.2020 04:00:00 9,4 5,9 - - 28 15 - - W 1004,0 45 0 0,0
22.10.2020 03:00:00 9,5 5,9 - - 31 17 - - W 1003,6 45 0 0,0
22.10.2020 02:00:00 9,3 5,6 - - 29 16 - - W 1003,3 50 0 0,0

tt = Température de l'air
td = dewpoint
tt -20cm = Température de l'air -20cm
tt -100cm = Température de l'air -100cm
ff = Vitesse du vent
fx = gusts
dd = Direction du vent
ppp = reduced air pressure
vv = visibility
sd = Ensoleillement
rr = Quantités de précipitations

stations d'obs. à proximité